sat.trackr.live / text

‹ back to catalog

GEESAT-4 10

NORAD 65128 · 2025-170K

PAYLOAD ACTIVE UNKNOWN

§ Identity

Operator
Country
PRC
Launch date
2025-08-08
Launch site
YSLA
Launch vehicle
Mass (kg)
RCS (m²)

External: N2YO · Heavens-Above · Gunter

§ Orbital elements

Epoch: 2026-05-25T03:59:16.096992Z

Period
97.17 min
Inclination
49.9779°
Eccentricity
0.0025595
Mean motion
14.82000925 rev/d
Perigee alt
605.1 km
Apogee alt
640.9 km
Semi-major
7,001.2 km
B*
1.9220e-4
RAAN
233.8495°
Arg perigee
203.0723°
Mean anomaly
156.9067°
Rev number
4,364

§ Raw data

GEESAT-4 101 65128U 25170K   26145.16615853  .00001320  00000+0  19220-3 0  99922 65128  49.9779 233.8495 0025595 203.0723 156.9067 14.82000925 43648

JSON: /api/v1/satellites/65128 · /tle

For live sub-satellite position, see the globe view (requires WebGL).

§ Visibility from observer

Set your observer location to see the next 7 days of passes ≥ 10°. The values pass through the URL so the page stays shareable.

No JS? Fill the form by hand. The geolocation button needs JavaScript.